Reading, PA

8:03 AM EST on December 15, 2019 (GMT -0500)
Reading Regional-Spaatz

Weather History for KRDG - August, 2019

Change the Weather History Date:

Monday, August 26, 2019

  Actual Average Record
Temperature  
Mean Temperature 66 °F 72 °F  
Max Temperature 75 °F 82 °F 99 °F (1948)
Min Temperature 57 °F 61 °F 47 °F (1977)
Degree Days  
Heating Degree Days 0 0  
Month to date heating degree days 0 0  
Since 1 June heating degree days 16 25  
Since 1 July heating degree days 0 1  
Cooling Degree Days 1 7  
Month to date cooling degree days 292 218  
Year to date cooling degree days 1030 770  
Since 1 June cooling degree days 925 710  
Growing Degree Days 16 (Base 50)    
Moisture  
Dew Point 58 °F    
Average Humidity 76    
Maximum Humidity 100    
Minimum Humidity 57    
Precipitation  
Precipitation 0.00 in 0.12 in 1.40 in (2007)
Month to date precipitation 1.79 3.08  
Year to date precipitation 40.08 28.40  
Sea Level Pressure  
Sea Level Pressure 30.19 in    
Wind  
Wind Speed 4 mph ()    
Max Wind Speed 10 mph    
Max Gust Speed 14 mph    
Visibility 10.0 miles    
Events      
T = Trace of Precipitation, MM = Missing Value Source: Averaged Metar Reports

Daily Weather History Graph

Daily Weather History Graph

Search for Another Location

Airport or City:

Astronomy

Aug. 26, 2019 Rise Set
Actual Time 6:25 AM EDT 7:45 PM EDT
Civil Twilight 5:56 AM EDT 8:13 PM EDT
Nautical Twilight 5:22 AM EDT 8:47 PM EDT
Astronomical Twilight 4:46 AM EDT 9:23 PM EDT
Moon 1:47 AM EDT (8/26) 5:07 PM EDT (8/26)
Length of Visible Light 14h 16m
Length of Day
13h 20m
Waning Crescent, 19% of the Moon is Illuminated
Aug 26
Waning Crescent
Aug 30
New
Sep 5
First Quarter
Sep 14
Full
Sep 21
Last Quarter

Hourly Weather History & Observations

Time (EDT) Temp. Dew Point Humidity Pressure Visibility Wind Dir Wind Speed Gust Speed Precip Events Conditions
12:54 AM 62.1 °F 59.0 °F 90% 30.22 in 10.0 mi North 3.5 mph - N/A   Clear
1:54 AM 60.1 °F 59.0 °F 96% 30.21 in 10.0 mi North 4.6 mph - N/A   Clear
2:54 AM 59.0 °F 57.9 °F 96% 30.21 in 10.0 mi North 3.5 mph - N/A   Clear
3:54 AM 59.0 °F 57.9 °F 96% 30.21 in 10.0 mi North 3.5 mph - N/A   Mostly Cloudy
4:54 AM 57.9 °F 57.9 °F 100% 30.21 in 10.0 mi NNW 3.5 mph - N/A   Clear
5:54 AM 59.0 °F 57.0 °F 93% 30.22 in 10.0 mi Calm Calm - N/A   Clear
6:54 AM 59.0 °F 57.0 °F 93% 30.23 in 10.0 mi NE 3.5 mph - N/A   Mostly Cloudy
7:19 AM 59.0 °F 57.0 °F 93% 30.22 in 10.0 mi NE 4.6 mph - N/A   Scattered Clouds
7:54 AM 61.0 °F 55.0 °F 81% 30.24 in 10.0 mi NE 6.9 mph - N/A   Clear
8:54 AM 63.0 °F 55.9 °F 78% 30.24 in 10.0 mi NNE 9.2 mph - N/A   Clear
9:54 AM 64.9 °F 55.9 °F 73% 30.23 in 10.0 mi North 8.1 mph - N/A   Scattered Clouds
10:49 AM 68.0 °F 57.2 °F 68% 30.22 in 10.0 mi North - - N/A   Mostly Cloudy
10:54 AM 69.1 °F 55.9 °F 63% 30.23 in 10.0 mi SE 5.8 mph - N/A   Mostly Cloudy
11:54 AM 69.1 °F 55.0 °F 61% 30.22 in 10.0 mi ENE 8.1 mph - N/A   Mostly Cloudy
12:54 PM 71.1 °F 55.9 °F 59% 30.21 in 10.0 mi Variable 5.8 mph - N/A   Scattered Clouds
1:54 PM 72.0 °F 55.9 °F 57% 30.19 in 10.0 mi NE 5.8 mph - N/A   Scattered Clouds
2:54 PM 73.0 °F 59.0 °F 61% 30.17 in 10.0 mi Variable 5.8 mph - N/A   Scattered Clouds
3:54 PM 73.9 °F 59.0 °F 59% 30.15 in 10.0 mi SE 6.9 mph - N/A   Scattered Clouds
4:54 PM 73.9 °F 60.1 °F 62% 30.14 in 10.0 mi East 6.9 mph - N/A   Partly Cloudy
5:54 PM 73.0 °F 60.1 °F 64% 30.13 in 10.0 mi Calm Calm - N/A   Mostly Cloudy
6:54 PM 73.0 °F 60.1 °F 64% 30.12 in 10.0 mi South 5.8 mph - N/A   Overcast
7:54 PM 71.1 °F 60.1 °F 68% 30.12 in 10.0 mi SSE 9.2 mph - N/A   Mostly Cloudy
8:54 PM 69.1 °F 59.0 °F 70% 30.14 in 10.0 mi South 6.9 mph - N/A   Mostly Cloudy
9:54 PM 66.9 °F 57.9 °F 73% 30.15 in 10.0 mi ESE 4.6 mph - N/A   Clear
10:54 PM 66.0 °F 55.9 °F 70% 30.16 in 10.0 mi SE 5.8 mph - N/A   Clear
11:54 PM 64.0 °F 55.9 °F 75% 30.16 in 10.0 mi SSE 4.6 mph - N/A   Clear